This demonstration page uses our WeatherBlox Daily Observations layout. Learn more.

Left ArrowRight Arrow

39.95238, -75.16362

Hourly Observations for August 29, 2022

Temp ( °F °C ) Dew Point ( °F °C ) Humidity (%) Winds ( mph kmh ) Pressure ( in mb ) Visibility ( mi km ) Precip ( " mm )
12:24 am 00:24 Mostly Cloudy 77 25 73 22.8 88 88 SE 3 6 30.15 1021 8 13 0.00 0.00
12:54 am 00:54 Mostly Cloudy 77 25 73 22.8 88 88 E 5 7 30.14 1021 8 13 0.00 0.00
1:24 am 01:24 Cloudy 77 25 73 22.8 88 88 Calm 30.15 1021 8 13 0.00 0.00
1:40 am 01:40 Mostly Cloudy 76 24.4 73 22.8 91 91 Calm 30.15 1021 8 13 0.00 0.00
1:54 am 01:54 Mostly Cloudy 77 25 73 22.8 88 88 Calm 30.14 1021 8 13 0.00 0.00
2:13 am 02:13 Mostly Cloudy 77 25 73 22.8 88 88 E 3 6 30.14 1021 9 14 0.00 0.00
2:31 am 02:31 Partly Cloudy 76 24.4 72 22.2 88 88 ESE 6 9 30.13 1020 10 16 0.00 0.00
2:54 am 02:54 Mostly Clear 76 24.4 73 22.8 91 91 E 5 7 30.13 1020 10 16 0.00 0.00
3:17 am 03:17 Mostly Clear 76 24.4 73 22.8 91 91 ESE 3 6 30.13 1020 8 13 0.00 0.00
3:39 am 03:39 Mostly Clear with Mist and Fog 75 23.9 73 22.8 94 94 ESE 6 9 30.13 1020 6 10 0.00 0.00
3:54 am 03:54 Mostly Clear with Mist and Fog 76 24.4 73 22.8 91 91 SE 5 7 30.12 1020 6 10 0.00 0.00
4:36 am 04:36 Partly Cloudy with Mist and Fog 75 23.9 73 22.8 94 94 Calm 30.12 1020 6 10 0.00 0.00
4:54 am 04:54 Partly Cloudy with Mist and Fog 75 23.9 73 22.8 94 94 SE 3 6 30.11 1020 6 10 0.00 0.00
5:04 am 05:04 Mostly Cloudy with Mist and Fog 75 23.9 73 22.8 94 94 Calm 30.12 1020 6 10 0.00 0.00
5:37 am 05:37 Mostly Cloudy with Mist and Fog 75 23.9 73 22.8 94 94 SE 6 9 30.12 1020 6 10 0.00 0.00
5:54 am 05:54 Mostly Cloudy with Mist and Fog 74 23.3 73 22.8 97 97 SE 5 7 30.12 1020 2 3 0.00 0.00
6:00 am 06:00 Cloudy with Mist and Fog 74 23.3 73 22.8 97 97 SE 5 7 30.13 1020 1 2 0.00 0.00
6:17 am 06:17 Mostly Clear with Mist and Fog 74 23.3 73 22.8 97 97 SSE 5 7 30.13 1020 1 1 0.00 0.00
6:54 am 06:54 Cloudy with Mist and Fog 74 23.3 73 22.8 97 97 SE 6 9 30.13 1020 2 2 0.00 0.00
7:54 am 07:54 Cloudy with Mist and Fog 75 23.9 73 22.8 94 94 SE 3 6 30.14 1021 2 3 0.00 0.00
8:02 am 08:02 Cloudy with Mist and Fog 75 23.9 73 22.8 94 94 SE 5 7 30.14 1021 3 5 0.00 0.00
8:24 am 08:24 Cloudy with Mist and Fog 76 24.4 73 22.8 91 91 Calm 30.15 1021 5 8 0.00 0.00
8:43 am 08:43 Cloudy 77 25 73 22.8 88 88 E 5 7 30.15 1021 7 11 0.00 0.00
8:54 am 08:54 Cloudy 78 25.6 74 23.3 87 87 E 3 6 30.15 1021 7 11 0.00 0.00
9:12 am 09:12 Mostly Cloudy 79 26.1 73 22.8 82 82 SE 5 7 30.16 1021 10 16 0.00 0.00
9:41 am 09:41 Mostly Cloudy 80 26.7 73 22.8 79 79 SSE 5 7 30.16 1021 10 16 0.00 0.00
9:54 am 09:54 Partly Cloudy 81 27.2 73 22.8 77 77 Calm 30.16 1021 10 16 0.00 0.00
10:54 am 10:54 Partly Cloudy 84 28.9 71 21.7 65 65 S 6 9 30.15 1021 10 16 0.00 0.00
11:54 am 11:54 Partly Cloudy 86 30 69 20.6 57 57 VRB 7 11 30.13 1020 10 16 0.00 0.00
12:54 pm 12:54 Mostly Sunny 88 31.1 68 20 52 52 S 7 11 30.11 1020 10 16 0.00 0.00
1:54 pm 13:54 Mostly Sunny 89 31.7 68 20 50 50 S 8 13 30.08 1019 10 16 0.00 0.00
2:46 pm 14:46 Mostly Sunny 90 32.2 67 19.4 47 47 VRB 7 11 30.07 1018 10 16 0.00 0.00
2:54 pm 14:54 Partly Cloudy 91 32.8 67 19.4 45 45 SW 9 15 30.06 1018 10 16 0.00 0.00
3:54 pm 15:54 Partly Cloudy 90 32.2 66 18.9 45 45 VRB 6 9 30.03 1017 10 16 0.00 0.00
4:54 pm 16:54 Mostly Sunny 91 32.8 65 18.3 42 42 S 9 15 30.02 1017 10 16 0.00 0.00
5:54 pm 17:54 Mostly Sunny 91 32.8 64 17.8 41 41 S 12 19 30.01 1016 10 16 0.00 0.00
6:54 pm 18:54 Mostly Sunny 88 31.1 67 19.4 50 50 S 13 20 30.01 1016 10 16 0.00 0.00
7:54 pm 19:54 Partly Cloudy 85 29.4 70 21.1 61 61 S 10 17 30.02 1017 10 16 0.00 0.00
8:54 pm 20:54 Partly Cloudy 82 27.8 70 21.1 67 67 SSW 7 11 30.05 1018 10 16 0.00 0.00
9:54 pm 21:54 Partly Cloudy 80 26.7 71 21.7 74 74 S 9 15 30.04 1017 10 16 0.00 0.00
10:54 pm 22:54 Mostly Clear 78 25.6 72 22.2 82 82 S 6 9 30.02 1017 10 16 0.00 0.00
11:52 pm 23:52 Partly Cloudy 79 26 73 23 84 84 SSW 3 6 30.02 1017 10 16 0.00 0.00
11:54 pm 23:54 Partly Cloudy 78 25.6 73 22.8 85 85 SSW 3 6 30.02 1017 10 16 0.00 0.00

Powered by AerisWeather